Location: Bow
(51.5261°N, 0.0167°W)
Time: 22:03:27
(UTC+00:00)

Abrixas rocket - Pass Details

Date: 18 September 2020
Orbit: 329 x 337 km, 48.4° (Epoch: 20 October)

Event Time Altitude Azimuth Distance (km) Brightness Sun altitude
Rises 19:33:05 0° 253° (WSW) 2,096 6.7 -13.9°
Reaches altitude 10° 19:35:08 10° 246° (WSW) 1,258 5.3 -14.2°
Maximum altitude 19:37:48 41° 174° (S) 495 2.4 -14.6°
Enters shadow 19:38:17 37° 144° (SE) 536 2.3 -14.7°
